Flag for Germany Weather past 2 weeks in Bergkamen, North Rhine-Westphalia, Germany

Now
61 °F

Partly sunny.


Feels Like: 61 °F
Forecast: 54 / 66 °F
Wind: 14 mph from South

Location: Dortmund / Wickede

Current Time: May 3, 2015 at 3:12:43 PM

Latest Report: May 3, 2015 at 2:20 PM


Visibility: N/A

Pressure: 29.62 "Hg

Humidity: 68%

Dew point: 50 °F

Location of BergkamenLocation

Historic Weather in Bergkamen — Graph

°F

Bergkamen temperature yesterday

Maximum temperature yesterday: 61 °F (at 4:20 PM)
Minimum temperature yesterday: 36 °F (at 6:20 AM)
Average temperature yesterday: 52 °F

Past Weeks' High & Low Weather Summary

 TemperatureHumidityPressure
High70 °F (Apr 21, 3:50 PM)94% (Apr 27, 5:20 AM)30.45 "Hg (Apr 27, 5:20 AM)
Low30 °F (Apr 28, 5:20 AM)18% (Apr 21, 4:50 PM)29.62 "Hg (Apr 27, 5:20 AM)
Average51 °F62%30.00 "Hg
* Reported Apr 18 1:20 PM — May 3 1:50 PM, Bergkamen, Weather by CustomWeather, © 2015

Note: Actual official high and low records may vary slightly from our data, if they occured in-between our weather recording intervals... More about our weather records

Advertising

Bergkamen weather history for previous 24 hours

 ConditionsComfort  
Time TempWeatherWind HumidityBarometerVisibility
1:50 PM
Sun, May 3
59 °FPartly sunny.14 mph68%29.62 "HgN/A
1:20 PM61 °FPartly sunny.13 mph63%29.62 "HgN/A
12:50 PM61 °FPartly sunny.10 mph63%29.62 "HgN/A
12:20 PM61 °FPartly sunny.13 mph63%29.62 "HgN/A
11:50 AM63 °FScattered clouds.15 mph59%29.62 "HgN/A
11:20 AM61 °FPartly sunny.12 mph63%29.65 "HgN/A
10:50 AM61 °FBroken clouds.9 mph63%29.65 "HgN/A
10:20 AM59 °FPassing clouds.5 mph59%29.65 "HgN/A
9:50 AM55 °FSunny.5 mph63%29.68 "Hg10 mi
9:20 AM55 °FClear.6 mph63%29.68 "HgN/A
8:50 AM52 °FSunny.8 mph67%29.68 "Hg10 mi
8:20 AM48 °FSunny.3 mph76%29.68 "Hg10 mi
7:50 AM46 °FSunny.3 mph76%29.71 "Hg10 mi
7:20 AM45 °FSunny.3 mph81%29.71 "Hg10 mi
6:50 AM45 °FClear.5 mph76%29.71 "Hg10 mi
6:20 AM45 °FClear.7 mph76%29.71 "Hg10 mi
5:50 AM45 °FClear.6 mph76%29.71 "Hg10 mi
5:20 AM45 °FClear.7 mph76%29.71 "Hg10 mi
10:50 PM
Sat, May 2
54 °FClear.7 mph51%29.83 "Hg10 mi
10:20 PM54 °FClear.7 mph51%29.83 "Hg10 mi
9:50 PM54 °FSunny.8 mph51%29.83 "Hg10 mi
9:20 PM54 °FSunny.7 mph51%29.83 "Hg10 mi
8:50 PM55 °FSunny.7 mph47%29.83 "Hg10 mi
8:20 PM55 °FSunny.6 mph47%29.83 "Hg10 mi
7:50 PM55 °FSunny.5 mph47%29.83 "Hg10 mi
7:20 PM55 °FSunny.5 mph44%29.83 "Hg10 mi
6:50 PM57 °FSunny.5 mph44%29.83 "Hg10 mi
6:20 PM57 °FSunny.3 mph41%29.83 "Hg10 mi
5:50 PM59 °FPassing clouds.5 mph34%29.83 "HgN/A
5:20 PM59 °FPassing clouds.6 mph34%29.86 "HgN/A
4:50 PM59 °FSunny.6 mph39%29.86 "Hg10 mi
4:20 PM61 °FSunny.2 mph31%29.86 "Hg10 mi
3:50 PM59 °FSunny.5 mph36%29.86 "Hg10 mi
3:20 PM57 °FPassing clouds.6 mph39%29.86 "HgN/A
Weather by CustomWeather, © 2015

See weather overviewHow to use our weather pages